This is the latest recevied weather packets stored in our database for station/object AC0MR. If no packets are shown the sender has not sent any weather packets the latest 1 day(s).
| Time | Temp. | Humidity | Pressure | Rain* | Wind** | Luminosity | Snow |
|---|---|---|---|---|---|---|---|
| 1778027119 | 12.78° C | 40% | 1008.4 hPa | 0 mm | 1.34 m/s, 293° | 38 W/m² | - |
| 1778026519 | 12.78° C | 40% | 1008.4 hPa | 0 mm | 1.79 m/s, 293° | 42 W/m² | - |
| 1778025919 | 12.78° C | 39% | 1008.2 hPa | 0 mm | 2.24 m/s, 338° | 67 W/m² | - |
| 1778025319 | 13.33° C | 38% | 1008.4 hPa | 0 mm | 2.68 m/s, 315° | 80 W/m² | - |
| 1778024719 | 13.33° C | 38% | 1008.1 hPa | 0 mm | 3.13 m/s, 315° | 96 W/m² | - |
| 1778024119 | 13.89° C | 38% | 1008 hPa | 0 mm | 1.79 m/s, 315° | 109 W/m² | - |
| 1778023519 | 13.89° C | 36% | 1008 hPa | 0 mm | 1.79 m/s, 270° | 111 W/m² | - |
| 1778022919 | 13.89° C | 36% | 1007.9 hPa | 0 mm | 2.68 m/s, 293° | 105 W/m² | - |
| 1778022319 | 13.89° C | 38% | 1007.9 hPa | 0 mm | 1.34 m/s, 315° | 117 W/m² | - |
| 1778021719 | 14.44° C | 35% | 1007.9 hPa | 0 mm | 2.68 m/s, 270° | 138 W/m² | - |
| 1778021119 | 14.44° C | 36% | 1008 hPa | 0 mm | 2.24 m/s, 293° | 160 W/m² | - |
| 1778020519 | 14.44° C | 36% | 1007.9 hPa | 0 mm | 1.79 m/s, 338° | 153 W/m² | - |
| 1778019919 | 15° C | 34% | 1008 hPa | 0 mm | 1.34 m/s, 270° | 156 W/m² | - |
| 1778019319 | 15° C | 34% | 1008.1 hPa | 0 mm | 2.24 m/s, 270° | 189 W/m² | - |
| 1778018719 | 15.56° C | 34% | 1008.2 hPa | 0 mm | 1.79 m/s, 270° | 225 W/m² | - |
| 1778018126 | 15.56° C | 35% | 1008.3 hPa | 0 mm | 2.24 m/s, 248° | 250 W/m² | - |
| 1778017519 | 15.56° C | 33% | 1008.2 hPa | 0 mm | 2.24 m/s, 270° | 363 W/m² | - |
| 1778016919 | 16.11° C | 34% | 1008.2 hPa | 0 mm | 2.68 m/s, 270° | 393 W/m² | - |
| 1778016319 | 16.11° C | 35% | 1008.4 hPa | 0 mm | 1.34 m/s, 225° | 613 W/m² | - |
| 1778015719 | 16.11° C | 33% | 1008.4 hPa | 0 mm | 2.24 m/s, 293° | 340 W/m² | - |
| 1778015119 | 16.11° C | 35% | 1008.5 hPa | 0 mm | 2.24 m/s, 225° | 458 W/m² | - |
| 1778014519 | 16.11° C | 35% | 1008.5 hPa | 0 mm | 1.34 m/s, 225° | 564 W/m² | - |
| 1778013919 | 15.56° C | 37% | 1008.6 hPa | 0 mm | 1.79 m/s, 270° | 598 W/m² | - |
| 1778013319 | 15.56° C | 35% | 1008.7 hPa | 0 mm | 2.68 m/s, 225° | 599 W/m² | - |
| 1778012719 | 15.56° C | 33% | 1008.7 hPa | 0 mm | 2.24 m/s, 248° | 358 W/m² | - |
* Rain latest hour (hover to see other rain measurements)
** Current wind speed in m/s (hover to see current wind gust speed)